Location: 22
(39.7117°N, 89.5929°W)
Time: 18:24:18
(UTC-05:00)

Gurwin Techsat 1B - Pass Details

Date: 07 April 2023
Orbit: 811 x 813 km, 98.9° (Epoch: 06 June)

Event Time Altitude Azimuth Distance (km) Brightness Sun altitude
Rises 03:09:10 0° 23° (NNE) 3,345 12.8 -34.9°
Reaches altitude 10° 03:11:45 10° 33° (NNE) 2,409 11.9 -34.5°
Enters shadow 03:16:05 33° 87° (E) 1,351 10.0 -34.0°
